Location: Bacharowice
(49.9333°N, 19.5833°E)
Time: 09:07:38
(UTC+00:00)

USA 306 - Pass Details

Date: 11 May 2021
Orbit: 565 x 575 km, 54.0° (Epoch: 11 May)

Event Time Altitude Azimuth Distance (km) Brightness Sun altitude
Rises 19:02:46 0° 292° (WNW) 2,771 8.1 -7.1°
Reaches altitude 10° 19:05:02 10° 295° (WNW) 1,874 7.1 -7.4°
Maximum altitude 19:09:17 69° 19° (NNE) 614 3.1 -7.9°
Drops below altitude 10° 19:13:32 10° 103° (ESE) 1,875 5.0 -8.4°
Enters shadow 19:13:55 - 104° (ESE) 2,022 5.2 -8.5°
